Location: East Irvine
(33.6759°N, 117.7598°W)
Time: 03:56:38
(UTC+00:00)

CZ-2D R/B - Visible Passes

Search period start: 19 February 2026 00:00
Search period end: 01 March 2026 00:00
Orbit: 387 x 397 km, 97.4° (Epoch: 18 February)

Date Brightness Start Highest point End Pass type
(mag) Time Alt. Az. Time Alt. Az. Time Alt. Az.
19 Feb 5.7 02:27:20 10° SSW 02:29:43 21° W 02:32:06 10° NW visible
19 Feb 6.3 13:44:35 10° ENE 13:46:24 15° E 13:48:12 10° SE visible
21 Feb 4.6 02:13:12 10° SSW 02:16:00 35° W 02:18:49 10° NNW visible
24 Feb 6.2 02:39:03 10° SW 02:40:52 15° W 02:42:40 10° WNW visible
24 Feb 5.9 13:55:01 10° NE 13:57:24 21° E 13:59:47 10° SSE visible
26 Feb 5.4 02:23:57 10° SSW 02:26:29 24° W 02:29:02 10° NW visible
26 Feb 6.5 13:41:33 10° ENE 13:42:58 13° E 13:44:21 10° ESE visible
28 Feb 4.1 02:08:59 10° S 02:11:53 43° W 02:14:48 10° NNW visible
